Time,TemperatureF,DewpointF,PressureIn,WindDirection,WindDirectionDegrees,WindSpeedMPH,WindSpeedGustMPH,Humidity,HourlyPrecipIn,Conditions,Clouds,dailyrainin,SolarRadiationWatts/m^2,SoftwareType,DateUTC
2013-05-19 00:01:00,54.4,40.8,30.19,West,270,0.0,0.0,60,0.00,,,0.00,0,Wunderground v.1.15,2013-05-19 04:01:00,
2013-05-19 00:02:00,54.4,40.8,30.19,West,270,0.0,0.0,60,0.00,,,0.00,0,Wunderground v.1.15,2013-05-19 04:02:00,
2013-05-19 00:04:00,54.4,40.8,30.19,West,270,0.0,0.0,60,0.00,,,0.00,0,Wunderground v.1.15,2013-05-19 04:04:00,
2013-05-19 00:10:00,54.2,41.0,30.19,SW,219,0.0,0.0,61,0.00,,,0.00,0,Wunderground v.1.15,2013-05-19 04:10:00,
2013-05-19 00:15:00,54.1,40.5,30.19,SW,219,0.0,0.0,60,0.00,,,0.00,0,Wunderground v.1.15,2013-05-19 04:15:00,
2013-05-19 00:20:00,54.1,40.9,30.19,SW,219,0.0,0.0,61,0.00,,,0.00,0,Wunderground v.1.15,2013-05-19 04:20:00,
2013-05-19 00:26:00,53.9,40.8,30.19,SW,219,0.0,0.0,61,0.00,,,0.00,0,Wunderground v.1.15,2013-05-19 04:26:00,
2013-05-19 00:29:00,53.9,41.2,30.19,SW,219,0.0,1.0,62,0.00,,,0.00,0,Wunderground v.1.15,2013-05-19 04:29:00,
2013-05-19 00:34:00,53.8,41.1,30.20,SW,219,0.0,0.0,62,0.00,,,0.00,0,Wunderground v.1.15,2013-05-19 04:34:00,
2013-05-19 00:39:00,53.8,41.5,30.20,SW,219,0.0,0.0,63,0.00,,,0.00,0,Wunderground v.1.15,2013-05-19 04:39:00,
2013-05-19 00:45:00,53.8,41.9,30.20,SW,219,0.0,1.0,64,0.00,,,0.00,0,Wunderground v.1.15,2013-05-19 04:45:00,
2013-05-19 00:50:00,53.6,41.3,30.20,SW,219,0.0,0.0,63,0.00,,,0.00,0,Wunderground v.1.15,2013-05-19 04:50:00,
2013-05-19 00:56:00,53.6,41.7,30.20,SW,219,0.0,0.0,64,0.00,,,0.00,0,Wunderground v.1.15,2013-05-19 04:56:00,
2013-05-19 01:02:00,53.6,41.7,30.20,SW,219,0.0,0.0,64,0.00,,,0.00,0,Wunderground v.1.15,2013-05-19 05:02:00,
2013-05-19 01:08:00,53.6,42.1,30.20,SW,219,0.0,1.0,65,0.00,,,0.00,0,Wunderground v.1.15,2013-05-19 05:08:00,
2013-05-19 01:13:00,53.6,42.5,30.20,SW,219,0.0,0.0,66,0.00,,,0.00,0,Wunderground v.1.15,2013-05-19 05:13:00,
2013-05-19 01:19:00,53.6,42.9,30.19,SW,219,0.0,0.0,67,0.00,,,0.00,0,Wunderground v.1.15,2013-05-19 05:19:00,
2013-05-19 01:24:00,53.9,43.6,30.19,SW,219,0.0,0.0,68,0.00,,,0.00,0,Wunderground v.1.15,2013-05-19 05:24:00,
2013-05-19 01:30:00,53.9,42.8,30.19,SW,219,0.0,0.0,66,0.00,,,0.00,0,Wunderground v.1.15,2013-05-19 05:30:00,
2013-05-19 01:36:00,53.8,42.7,30.19,SW,219,0.0,1.0,66,0.00,,,0.00,0,Wunderground v.1.15,2013-05-19 05:36:00,
2013-05-19 01:41:00,53.8,42.7,30.19,SW,219,0.0,0.0,66,0.00,,,0.00,0,Wunderground v.1.15,2013-05-19 05:41:00,
2013-05-19 01:47:00,53.6,42.1,30.20,SW,219,0.0,1.0,65,0.00,,,0.00,0,Wunderground v.1.15,2013-05-19 05:47:00,
2013-05-19 01:53:00,53.5,42.4,30.20,SW,219,0.0,0.0,66,0.00,,,0.00,0,Wunderground v.1.15,2013-05-19 05:53:00,
2013-05-19 01:58:00,53.3,42.2,30.20,SW,219,0.0,1.0,66,0.00,,,0.00,0,Wunderground v.1.15,2013-05-19 05:58:00,
2013-05-19 02:04:00,53.2,42.5,30.20,SW,219,0.0,0.0,67,0.00,,,0.00,0,Wunderground v.1.15,2013-05-19 06:04:00,
2013-05-19 02:10:00,53.1,42.4,30.20,SW,219,0.0,0.0,67,0.00,,,0.00,0,Wunderground v.1.15,2013-05-19 06:10:00,
2013-05-19 02:15:00,52.9,42.2,30.20,SW,219,0.0,2.0,67,0.00,,,0.00,0,Wunderground v.1.15,2013-05-19 06:15:00,
2013-05-19 02:20:00,52.8,42.5,30.20,SW,219,0.0,0.0,68,0.00,,,0.00,0,Wunderground v.1.15,2013-05-19 06:20:00,
2013-05-19 02:26:00,52.5,42.2,30.20,SW,219,0.0,0.0,68,0.00,,,0.00,0,Wunderground v.1.15,2013-05-19 06:26:00,
2013-05-19 02:31:00,52.3,42.4,30.20,SW,219,0.0,0.0,69,0.00,,,0.00,0,Wunderground v.1.15,2013-05-19 06:31:00,
2013-05-19 02:37:00,52.2,42.7,30.20,SW,219,0.0,0.0,70,0.00,,,0.00,0,Wunderground v.1.15,2013-05-19 06:37:00,
2013-05-19 02:43:00,52.0,42.5,30.20,SW,219,0.0,1.0,70,0.00,,,0.00,0,Wunderground v.1.15,2013-05-19 06:43:00,
2013-05-19 02:48:00,51.9,42.4,30.20,SW,219,0.0,2.0,70,0.00,,,0.00,0,Wunderground v.1.15,2013-05-19 06:48:00,
2013-05-19 02:54:00,51.7,42.6,30.20,SW,219,0.0,2.0,71,0.00,,,0.00,0,Wunderground v.1.15,2013-05-19 06:54:00,
2013-05-19 02:59:00,51.7,43.0,30.20,SW,219,0.0,2.0,72,0.00,,,0.00,0,Wunderground v.1.15,2013-05-19 06:59:00,
2013-05-19 03:06:00,51.7,43.3,30.20,SW,219,0.0,0.0,73,0.00,,,0.00,0,Wunderground v.1.15,2013-05-19 07:06:00,
2013-05-19 03:11:00,51.7,43.3,30.20,SW,219,0.0,0.0,73,0.00,,,0.00,0,Wunderground v.1.15,2013-05-19 07:11:00,
2013-05-19 03:16:00,51.9,43.5,30.20,SW,219,0.0,0.0,73,0.00,,,0.00,0,Wunderground v.1.15,2013-05-19 07:16:00,
2013-05-19 03:22:00,52.0,43.6,30.20,SW,219,0.0,0.0,73,0.00,,,0.00,0,Wunderground v.1.15,2013-05-19 07:22:00,
2013-05-19 03:27:00,52.0,43.3,30.20,SW,219,0.0,0.0,72,0.00,,,0.00,0,Wunderground v.1.15,2013-05-19 07:27:00,
2013-05-19 03:33:00,51.9,43.5,30.20,SW,219,0.0,1.0,73,0.00,,,0.00,0,Wunderground v.1.15,2013-05-19 07:33:00,
2013-05-19 03:39:00,51.9,43.5,30.20,SW,219,0.0,1.0,73,0.00,,,0.00,0,Wunderground v.1.15,2013-05-19 07:39:00,
2013-05-19 03:45:00,51.9,43.5,30.20,SW,219,0.0,0.0,73,0.00,,,0.00,0,Wunderground v.1.15,2013-05-19 07:45:00,
2013-05-19 03:50:00,51.9,43.9,30.20,SW,219,0.0,0.0,74,0.00,,,0.00,0,Wunderground v.1.15,2013-05-19 07:50:00,
2013-05-19 03:56:00,51.9,43.9,30.20,SW,219,0.0,1.0,74,0.00,,,0.00,0,Wunderground v.1.15,2013-05-19 07:56:00,
2013-05-19 04:02:00,52.0,44.0,30.21,SW,219,0.0,0.0,74,0.00,,,0.00,0,Wunderground v.1.15,2013-05-19 08:02:00,
2013-05-19 04:08:00,52.0,44.0,30.21,SW,219,0.0,0.0,74,0.00,,,0.00,0,Wunderground v.1.15,2013-05-19 08:08:00,
2013-05-19 04:13:00,52.0,44.3,30.21,SW,219,0.0,0.0,75,0.00,,,0.00,0,Wunderground v.1.15,2013-05-19 08:13:00,
2013-05-19 04:19:00,52.0,44.3,30.21,SW,219,0.0,1.0,75,0.00,,,0.00,0,Wunderground v.1.15,2013-05-19 08:19:00,
2013-05-19 04:24:00,51.9,44.2,30.21,SW,219,0.0,0.0,75,0.00,,,0.00,0,Wunderground v.1.15,2013-05-19 08:24:00,
2013-05-19 04:30:00,51.7,44.4,30.21,SW,219,0.0,1.0,76,0.00,,,0.00,0,Wunderground v.1.15,2013-05-19 08:30:00,
2013-05-19 04:36:00,51.7,44.4,30.21,SW,219,0.0,1.0,76,0.00,,,0.00,0,Wunderground v.1.15,2013-05-19 08:36:00,
2013-05-19 04:42:00,51.7,44.4,30.21,SW,219,0.0,0.0,76,0.00,,,0.00,0,Wunderground v.1.15,2013-05-19 08:42:00,
2013-05-19 04:47:00,51.7,44.4,30.22,SW,219,0.0,0.0,76,0.00,,,0.00,0,Wunderground v.1.15,2013-05-19 08:47:00,
2013-05-19 04:52:00,51.7,44.4,30.22,SW,219,0.0,0.0,76,0.00,,,0.00,0,Wunderground v.1.15,2013-05-19 08:52:00,
2013-05-19 04:57:00,51.6,44.3,30.22,SW,219,0.0,0.0,76,0.00,,,0.00,0,Wunderground v.1.15,2013-05-19 08:57:00,
2013-05-19 05:03:00,51.6,44.6,30.21,SW,219,0.0,0.0,77,0.00,,,0.00,0,Wunderground v.1.15,2013-05-19 09:03:00,
2013-05-19 05:09:00,51.6,44.6,30.21,SW,219,0.0,0.0,77,0.00,,,0.00,0,Wunderground v.1.15,2013-05-19 09:09:00,
2013-05-19 05:15:00,51.6,44.6,30.21,SW,219,0.0,0.0,77,0.00,,,0.00,5,Wunderground v.1.15,2013-05-19 09:15:00,
2013-05-19 05:20:00,51.6,44.6,30.21,SW,219,0.0,0.0,77,0.00,,,0.00,9,Wunderground v.1.15,2013-05-19 09:20:00,
2013-05-19 05:26:00,51.6,44.6,30.21,SW,219,0.0,0.0,77,0.00,,,0.00,7,Wunderground v.1.15,2013-05-19 09:26:00,
2013-05-19 05:32:00,51.6,45.0,30.21,SW,219,0.0,0.0,78,0.00,,,0.00,7,Wunderground v.1.15,2013-05-19 09:32:00,
2013-05-19 05:37:00,51.7,45.1,30.21,SW,219,0.0,0.0,78,0.00,,,0.00,12,Wunderground v.1.15,2013-05-19 09:37:00,
2013-05-19 05:43:00,51.9,44.9,30.21,SW,219,0.0,0.0,77,0.00,,,0.00,14,Wunderground v.1.15,2013-05-19 09:43:00,
2013-05-19 05:49:00,52.0,45.4,30.22,SW,219,0.0,0.0,78,0.00,,,0.00,14,Wunderground v.1.15,2013-05-19 09:49:00,
2013-05-19 05:54:00,52.0,45.4,30.22,SW,219,0.0,0.0,78,0.00,,,0.00,19,Wunderground v.1.15,2013-05-19 09:54:00,
2013-05-19 06:00:00,52.0,45.4,30.22,SE,131,0.0,0.0,78,0.00,,,0.00,26,Wunderground v.1.15,2013-05-19 10:00:00,
2013-05-19 06:06:00,52.0,45.4,30.22,SE,131,0.0,0.0,78,0.00,,,0.00,33,Wunderground v.1.15,2013-05-19 10:06:00,
2013-05-19 06:11:00,52.2,45.5,30.22,SE,131,0.0,0.0,78,0.00,,,0.00,33,Wunderground v.1.15,2013-05-19 10:11:00,
2013-05-19 06:16:00,52.2,45.5,30.22,SE,131,0.0,0.0,78,0.00,,,0.00,35,Wunderground v.1.15,2013-05-19 10:16:00,
2013-05-19 06:22:00,52.2,45.9,30.22,SE,131,0.0,0.0,79,0.00,,,0.00,44,Wunderground v.1.15,2013-05-19 10:22:00,
2013-05-19 06:27:00,52.2,45.9,30.22,SE,131,0.0,0.0,79,0.00,,,0.00,47,Wunderground v.1.15,2013-05-19 10:27:00,
2013-05-19 06:33:00,52.3,46.3,30.22,SE,131,0.0,0.0,80,0.00,,,0.00,51,Wunderground v.1.15,2013-05-19 10:33:00,
2013-05-19 06:39:00,52.5,46.5,30.22,SE,131,0.0,0.0,80,0.00,,,0.00,46,Wunderground v.1.15,2013-05-19 10:39:00,
2013-05-19 06:44:00,52.5,46.5,30.22,SE,131,0.0,0.0,80,0.00,,,0.00,46,Wunderground v.1.15,2013-05-19 10:44:00,
2013-05-19 06:50:00,52.5,46.5,30.22,SE,131,0.0,0.0,80,0.00,,,0.00,33,Wunderground v.1.15,2013-05-19 10:50:00,
2013-05-19 06:56:00,52.5,46.5,30.22,SE,131,0.0,0.0,80,0.00,,,0.00,39,Wunderground v.1.15,2013-05-19 10:56:00,
2013-05-19 07:02:00,52.6,46.6,30.22,SE,131,0.0,0.0,80,0.00,,,0.00,44,Wunderground v.1.15,2013-05-19 11:02:00,
2013-05-19 07:07:00,52.6,46.6,30.22,SE,131,0.0,0.0,80,0.00,,,0.00,44,Wunderground v.1.15,2013-05-19 11:07:00,
2013-05-19 07:13:00,52.6,46.6,30.22,SE,131,0.0,0.0,80,0.00,,,0.00,47,Wunderground v.1.15,2013-05-19 11:13:00,
2013-05-19 07:19:00,52.6,46.6,30.23,SE,131,0.0,0.0,80,0.00,,,0.00,46,Wunderground v.1.15,2013-05-19 11:19:00,
2013-05-19 07:24:00,52.6,46.6,30.23,SE,131,0.0,0.0,80,0.00,,,0.00,54,Wunderground v.1.15,2013-05-19 11:24:00,
2013-05-19 07:30:00,52.6,46.6,30.23,SE,131,0.0,0.0,80,0.00,,,0.00,46,Wunderground v.1.15,2013-05-19 11:30:00,
2013-05-19 07:36:00,52.6,46.9,30.23,SE,131,0.0,0.0,81,0.00,,,0.00,47,Wunderground v.1.15,2013-05-19 11:36:00,
2013-05-19 07:41:00,52.8,47.1,30.23,SE,131,0.0,0.0,81,0.00,,,0.00,54,Wunderground v.1.15,2013-05-19 11:41:00,
2013-05-19 07:47:00,52.9,47.2,30.23,SE,131,0.0,0.0,81,0.00,,,0.00,67,Wunderground v.1.15,2013-05-19 11:47:00,
2013-05-19 07:53:00,53.2,47.2,30.23,SE,131,0.0,0.0,80,0.00,,,0.00,74,Wunderground v.1.15,2013-05-19 11:53:00,
2013-05-19 07:58:00,53.5,47.5,30.23,SE,131,0.0,0.0,80,0.00,,,0.00,79,Wunderground v.1.15,2013-05-19 11:58:00,
2013-05-19 08:04:00,53.9,47.5,30.23,SE,131,0.0,0.0,79,0.00,,,0.00,86,Wunderground v.1.15,2013-05-19 12:04:00,
2013-05-19 08:10:00,54.5,47.4,30.23,SSW,205,0.0,3.0,77,0.00,,,0.00,97,Wunderground v.1.15,2013-05-19 12:10:00,
2013-05-19 08:16:00,55.0,47.6,30.23,SSW,205,0.0,3.0,76,0.00,,,0.00,88,Wunderground v.1.15,2013-05-19 12:16:00,
2013-05-19 08:21:00,55.6,47.8,30.23,SSW,205,0.0,0.0,75,0.00,,,0.00,137,Wunderground v.1.15,2013-05-19 12:21:00,
2013-05-19 08:27:00,56.5,47.9,30.23,SSE,166,0.0,0.0,73,0.00,,,0.00,469,Wunderground v.1.15,2013-05-19 12:27:00,
2013-05-19 08:33:00,57.5,48.2,30.23,WNW,301,0.0,3.0,71,0.00,,,0.00,571,Wunderground v.1.15,2013-05-19 12:33:00,
2013-05-19 08:38:00,58.7,48.6,30.23,SSW,210,0.0,3.0,69,0.00,,,0.00,548,Wunderground v.1.15,2013-05-19 12:38:00,
2013-05-19 08:44:00,60.2,49.6,30.23,SW,214,0.0,0.0,68,0.00,,,0.00,650,Wunderground v.1.15,2013-05-19 12:44:00,
2013-05-19 08:50:00,62.3,50.0,30.23,SSW,201,0.0,0.0,64,0.00,,,0.00,492,Wunderground v.1.15,2013-05-19 12:50:00,
2013-05-19 08:56:00,63.4,49.7,30.23,SSE,155,1.0,4.0,61,0.00,,,0.00,599,Wunderground v.1.15,2013-05-19 12:56:00,
2013-05-19 09:01:00,64.2,50.0,30.23,SE,139,0.0,1.0,60,0.00,,,0.00,429,Wunderground v.1.15,2013-05-19 13:01:00,
2013-05-19 09:07:00,64.8,50.1,30.23,SSE,165,0.0,1.0,59,0.00,,,0.00,357,Wunderground v.1.15,2013-05-19 13:07:00,
2013-05-19 09:13:00,65.0,49.4,30.23,SSE,166,0.0,1.0,57,0.00,,,0.00,299,Wunderground v.1.15,2013-05-19 13:13:00,
2013-05-19 09:19:00,64.7,49.6,30.23,ESE,105,0.0,1.0,58,0.00,,,0.00,258,Wunderground v.1.15,2013-05-19 13:19:00,
2013-05-19 09:24:00,64.5,49.8,30.23,ESE,105,0.0,0.0,59,0.00,,,0.00,255,Wunderground v.1.15,2013-05-19 13:24:00,
2013-05-19 09:31:00,64.2,50.0,30.22,SSE,160,0.0,0.0,60,0.00,,,0.00,306,Wunderground v.1.15,2013-05-19 13:31:00,
2013-05-19 09:36:00,63.9,49.7,30.22,SSE,160,0.0,0.0,60,0.00,,,0.00,332,Wunderground v.1.15,2013-05-19 13:36:00,
2013-05-19 09:42:00,64.0,49.8,30.22,SE,136,0.0,0.0,60,0.00,,,0.00,401,Wunderground v.1.15,2013-05-19 13:42:00,
2013-05-19 09:47:00,64.3,50.1,30.22,SE,129,0.0,3.0,60,0.00,,,0.00,338,Wunderground v.1.15,2013-05-19 13:47:00,
2013-05-19 09:53:00,64.7,49.6,30.22,SE,129,0.0,0.0,58,0.00,,,0.00,411,Wunderground v.1.15,2013-05-19 13:53:00,
2013-05-19 09:59:00,65.2,50.0,30.22,South,184,0.0,0.0,58,0.00,,,0.00,490,Wunderground v.1.15,2013-05-19 13:59:00,
2013-05-19 10:04:00,65.6,50.9,30.22,SSE,162,0.0,1.0,59,0.00,,,0.00,612,Wunderground v.1.15,2013-05-19 14:04:00,
2013-05-19 10:10:00,66.0,50.3,30.22,SSE,150,0.0,0.0,57,0.00,,,0.00,436,Wunderground v.1.15,2013-05-19 14:10:00,
2013-05-19 10:15:00,66.3,51.1,30.22,SSE,166,1.0,3.0,58,0.00,,,0.00,571,Wunderground v.1.15,2013-05-19 14:15:00,
2013-05-19 10:21:00,66.9,50.2,30.22,South,172,1.0,1.0,55,0.00,,,0.00,501,Wunderground v.1.15,2013-05-19 14:21:00,
2013-05-19 10:26:00,67.3,51.1,30.22,WSW,237,0.0,2.0,56,0.00,,,0.00,591,Wunderground v.1.15,2013-05-19 14:26:00,
2013-05-19 10:32:00,67.6,51.3,30.22,SSE,160,0.0,0.0,56,0.00,,,0.00,555,Wunderground v.1.15,2013-05-19 14:32:00,
2013-05-19 10:37:00,68.1,51.8,30.22,SSE,160,0.0,0.0,56,0.00,,,0.00,682,Wunderground v.1.15,2013-05-19 14:37:00,
2013-05-19 10:43:00,68.9,52.1,30.22,ESE,117,0.0,0.0,55,0.00,,,0.00,517,Wunderground v.1.15,2013-05-19 14:43:00,
2013-05-19 10:49:00,69.4,52.0,30.22,SE,142,0.0,0.0,54,0.00,,,0.00,547,Wunderground v.1.15,2013-05-19 14:49:00,
2013-05-19 10:55:00,70.1,52.7,30.22,SE,139,0.0,0.0,54,0.00,,,0.00,606,Wunderground v.1.15,2013-05-19 14:55:00,
2013-05-19 11:01:00,70.4,51.4,30.22,SSE,153,0.0,0.0,51,0.00,,,0.00,826,Wunderground v.1.15,2013-05-19 15:01:00,
2013-05-19 11:06:00,70.4,50.3,30.22,SSE,155,0.0,2.0,49,0.00,,,0.00,459,Wunderground v.1.15,2013-05-19 15:06:00,
2013-05-19 11:11:00,69.8,50.9,30.22,SSE,158,0.0,0.0,51,0.00,,,0.00,555,Wunderground v.1.15,2013-05-19 15:11:00,
2013-05-19 11:16:00,69.6,51.2,30.21,SSE,147,0.0,2.0,52,0.00,,,0.00,568,Wunderground v.1.15,2013-05-19 15:16:00,
2013-05-19 11:22:00,69.8,51.9,30.21,ESE,111,0.0,0.0,53,0.00,,,0.00,462,Wunderground v.1.15,2013-05-19 15:22:00,
2013-05-19 11:28:00,69.9,50.9,30.21,ESE,111,0.0,0.0,51,0.00,,,0.00,399,Wunderground v.1.15,2013-05-19 15:28:00,
2013-05-19 11:33:00,69.3,50.9,30.21,SSE,150,0.0,1.0,52,0.00,,,0.00,408,Wunderground v.1.15,2013-05-19 15:33:00,
2013-05-19 11:39:00,69.1,50.7,30.21,SSE,151,0.0,2.0,52,0.00,,,0.00,492,Wunderground v.1.15,2013-05-19 15:39:00,
2013-05-19 11:45:00,69.6,51.2,30.21,SSE,151,0.0,1.0,52,0.00,,,0.00,408,Wunderground v.1.15,2013-05-19 15:45:00,
2013-05-19 11:51:00,69.6,51.2,30.21,SSW,199,0.0,0.0,52,0.00,,,0.00,403,Wunderground v.1.15,2013-05-19 15:51:00,
2013-05-19 11:56:00,69.3,50.4,30.21,SW,218,0.0,4.0,51,0.00,,,0.00,487,Wunderground v.1.15,2013-05-19 15:56:00,
2013-05-19 12:02:00,69.3,51.4,30.20,SSE,161,0.0,0.0,53,0.00,,,0.00,424,Wunderground v.1.15,2013-05-19 16:02:00,
2013-05-19 12:08:00,69.8,51.4,30.20,ESE,103,0.0,2.0,52,0.00,,,0.00,427,Wunderground v.1.15,2013-05-19 16:08:00,
2013-05-19 12:13:00,70.1,51.7,30.20,ESE,114,0.0,1.0,52,0.00,,,0.00,455,Wunderground v.1.15,2013-05-19 16:13:00,
2013-05-19 12:18:00,70.3,52.9,30.19,ESE,114,0.0,1.0,54,0.00,,,0.00,578,Wunderground v.1.15,2013-05-19 16:18:00,
2013-05-19 12:24:00,70.4,53.0,30.19,ESE,120,0.0,0.0,54,0.00,,,0.00,810,Wunderground v.1.15,2013-05-19 16:24:00,
2013-05-19 12:29:00,70.3,53.4,30.19,SW,229,0.0,2.0,55,0.00,,,0.00,582,Wunderground v.1.15,2013-05-19 16:29:00,
2013-05-19 12:35:00,71.1,53.6,30.19,SE,137,1.0,1.0,54,0.00,,,0.00,480,Wunderground v.1.15,2013-05-19 16:35:00,
2013-05-19 12:41:00,71.6,54.1,30.19,SE,138,0.0,0.0,54,0.00,,,0.00,439,Wunderground v.1.15,2013-05-19 16:41:00,
2013-05-19 12:47:00,71.5,55.0,30.18,NW,323,0.0,2.0,56,0.00,,,0.00,496,Wunderground v.1.15,2013-05-19 16:47:00,
2013-05-19 12:52:00,70.8,54.3,30.18,South,172,0.0,5.0,56,0.00,,,0.00,422,Wunderground v.1.15,2013-05-19 16:52:00,
2013-05-19 12:58:00,70.4,54.4,30.18,SW,224,0.0,5.0,57,0.00,,,0.00,436,Wunderground v.1.15,2013-05-19 16:58:00,
2013-05-19 13:04:00,69.9,53.5,30.19,NNE,26,1.0,3.0,56,0.00,,,0.00,227,Wunderground v.1.15,2013-05-19 17:04:00,
2013-05-19 13:11:00,69.1,53.2,30.19,SE,133,1.0,2.0,57,0.00,,,0.00,174,Wunderground v.1.15,2013-05-19 17:11:00,
2013-05-19 13:16:00,68.4,53.0,30.19,SE,134,0.0,2.0,58,0.00,,,0.00,76,Wunderground v.1.15,2013-05-19 17:16:00,
2013-05-19 13:22:00,67.4,53.0,30.19,SSW,204,0.0,0.0,60,0.00,,,0.00,107,Wunderground v.1.15,2013-05-19 17:22:00,
2013-05-19 13:27:00,66.3,52.0,30.19,SW,214,0.0,2.0,60,0.00,,,0.00,148,Wunderground v.1.15,2013-05-19 17:27:00,
2013-05-19 13:33:00,65.6,52.2,30.20,SSW,200,1.0,3.0,62,0.00,,,0.00,139,Wunderground v.1.15,2013-05-19 17:33:00,
2013-05-19 13:39:00,65.5,52.6,30.20,SE,127,1.0,3.0,63,0.00,,,0.00,179,Wunderground v.1.15,2013-05-19 17:39:00,
2013-05-19 13:45:00,65.3,52.4,30.19,ESE,110,1.0,1.0,63,0.00,,,0.00,100,Wunderground v.1.15,2013-05-19 17:45:00,
2013-05-19 13:50:00,65.2,52.7,30.19,ESE,111,0.0,0.0,64,0.00,,,0.00,111,Wunderground v.1.15,2013-05-19 17:50:00,
2013-05-19 13:56:00,64.8,52.3,30.19,ESE,115,1.0,2.0,64,0.00,,,0.00,98,Wunderground v.1.15,2013-05-19 17:56:00,
2013-05-19 14:02:00,64.5,52.5,30.19,ESE,115,0.0,0.0,65,0.00,,,0.00,88,Wunderground v.1.15,2013-05-19 18:02:00,
2013-05-19 14:07:00,64.3,52.3,30.19,ESE,116,0.0,0.0,65,0.00,,,0.00,69,Wunderground v.1.15,2013-05-19 18:07:00,
2013-05-19 14:13:00,64.2,52.6,30.19,SSE,165,0.0,0.0,66,0.00,,,0.00,58,Wunderground v.1.15,2013-05-19 18:13:00,
2013-05-19 14:19:00,63.9,52.3,30.20,SSE,165,0.0,1.0,66,0.00,,,0.00,44,Wunderground v.1.15,2013-05-19 18:19:00,
2013-05-19 14:24:00,63.5,52.3,30.20,SSE,165,0.0,0.0,67,0.00,,,0.00,51,Wunderground v.1.15,2013-05-19 18:24:00,
2013-05-19 14:30:00,63.2,52.5,30.20,SSE,166,0.0,0.0,68,0.00,,,0.00,70,Wunderground v.1.15,2013-05-19 18:30:00,
2013-05-19 14:36:00,63.1,52.4,30.20,South,187,0.0,4.0,68,0.00,,,0.00,54,Wunderground v.1.15,2013-05-19 18:36:00,
2013-05-19 14:41:00,62.7,52.4,30.20,South,180,0.0,0.0,69,0.00,,,0.00,69,Wunderground v.1.15,2013-05-19 18:41:00,
2013-05-19 14:47:00,62.6,51.9,30.19,South,181,0.0,2.0,68,0.00,,,0.00,84,Wunderground v.1.15,2013-05-19 18:47:00,
2013-05-19 14:53:00,62.3,52.0,30.19,NW,325,1.0,1.0,69,0.00,,,0.00,74,Wunderground v.1.15,2013-05-19 18:53:00,
2013-05-19 14:58:00,62.1,52.2,30.19,South,179,1.0,4.0,70,0.00,,,0.00,102,Wunderground v.1.15,2013-05-19 18:58:00,
2013-05-19 15:04:00,62.0,52.1,30.18,SE,146,0.0,7.0,70,0.00,,,0.00,95,Wunderground v.1.15,2013-05-19 19:04:00,
2013-05-19 15:11:00,62.0,52.5,30.18,SE,135,0.0,0.0,71,0.00,,,0.00,44,Wunderground v.1.15,2013-05-19 19:11:00,
2013-05-19 15:16:00,61.6,52.1,30.18,SE,141,0.0,0.0,71,0.00,,,0.00,56,Wunderground v.1.15,2013-05-19 19:16:00,
2013-05-19 15:22:00,61.5,52.0,30.18,SW,231,0.0,4.0,71,0.00,,,0.00,54,Wunderground v.1.15,2013-05-19 19:22:00,
2013-05-19 15:27:00,61.2,52.1,30.18,ESE,117,1.0,4.0,72,0.00,,,0.00,111,Wunderground v.1.15,2013-05-19 19:27:00,
2013-05-19 15:33:00,61.2,52.5,30.19,SE,133,0.0,1.0,73,0.00,,,0.00,118,Wunderground v.1.15,2013-05-19 19:33:00,
2013-05-19 15:39:00,61.0,52.3,30.19,SSW,205,0.0,6.0,73,0.00,,,0.00,104,Wunderground v.1.15,2013-05-19 19:39:00,
2013-05-19 15:44:00,60.9,52.6,30.18,SSE,155,0.0,0.0,74,0.00,,,0.00,116,Wunderground v.1.15,2013-05-19 19:44:00,
2013-05-19 15:50:00,61.0,52.7,30.18,East,96,0.0,0.0,74,0.00,,,0.00,79,Wunderground v.1.15,2013-05-19 19:50:00,
2013-05-19 15:56:00,60.9,52.9,30.18,SE,146,0.0,0.0,75,0.00,,,0.00,56,Wunderground v.1.15,2013-05-19 19:56:00,
2013-05-19 16:01:00,60.7,52.7,30.18,SSE,163,0.0,0.0,75,0.00,,,0.00,51,Wunderground v.1.15,2013-05-19 20:01:00,
2013-05-19 16:07:00,60.4,53.2,30.18,SSE,163,0.0,0.0,77,0.00,,,0.00,81,Wunderground v.1.15,2013-05-19 20:07:00,
2013-05-19 16:13:00,60.2,53.0,30.18,South,188,0.0,0.0,77,0.00,,,0.00,90,Wunderground v.1.15,2013-05-19 20:13:00,
2013-05-19 16:18:00,60.1,52.9,30.18,South,191,0.0,0.0,77,0.00,,,0.00,86,Wunderground v.1.15,2013-05-19 20:18:00,
2013-05-19 16:24:00,60.1,52.9,30.18,South,174,0.0,0.0,77,0.00,,,0.00,135,Wunderground v.1.15,2013-05-19 20:24:00,
2013-05-19 16:29:00,60.1,53.2,30.17,South,174,0.0,0.0,78,0.00,,,0.00,107,Wunderground v.1.15,2013-05-19 20:29:00,
2013-05-19 16:36:00,60.1,53.6,30.17,SE,136,0.0,0.0,79,0.00,,,0.00,81,Wunderground v.1.15,2013-05-19 20:36:00,
2013-05-19 16:41:00,60.1,53.6,30.17,SE,133,0.0,0.0,79,0.00,,,0.00,77,Wunderground v.1.15,2013-05-19 20:41:00,
2013-05-19 16:47:00,60.1,53.9,30.17,SE,133,0.0,0.0,80,0.00,,,0.00,116,Wunderground v.1.15,2013-05-19 20:47:00,
2013-05-19 16:52:00,60.1,53.9,30.17,South,170,0.0,0.0,80,0.00,,,0.00,84,Wunderground v.1.15,2013-05-19 20:52:00,
2013-05-19 16:58:00,59.9,53.7,30.17,South,170,0.0,0.0,80,0.00,,,0.00,97,Wunderground v.1.15,2013-05-19 20:58:00,
2013-05-19 17:04:00,59.9,54.1,30.16,South,170,0.0,1.0,81,0.00,,,0.00,97,Wunderground v.1.15,2013-05-19 21:04:00,
2013-05-19 17:11:00,59.9,54.4,30.16,South,171,0.0,0.0,82,0.00,,,0.00,86,Wunderground v.1.15,2013-05-19 21:11:00,
2013-05-19 17:16:00,59.9,54.4,30.16,South,170,0.0,0.0,82,0.00,,,0.00,72,Wunderground v.1.15,2013-05-19 21:16:00,
2013-05-19 17:22:00,59.9,54.7,30.16,South,170,0.0,0.0,83,0.00,,,0.00,100,Wunderground v.1.15,2013-05-19 21:22:00,
2013-05-19 17:27:00,59.9,54.7,30.16,South,170,0.0,0.0,83,0.00,,,0.00,84,Wunderground v.1.15,2013-05-19 21:27:00,
2013-05-19 17:33:00,59.8,55.0,30.15,South,170,0.0,0.0,84,0.00,,,0.01,91,Wunderground v.1.15,2013-05-19 21:33:00,
2013-05-19 17:39:00,59.8,55.0,30.15,South,170,0.0,0.0,84,0.00,,,0.01,77,Wunderground v.1.15,2013-05-19 21:39:00,
2013-05-19 17:44:00,59.8,55.3,30.15,South,170,0.0,0.0,85,0.00,,,0.01,65,Wunderground v.1.15,2013-05-19 21:44:00,
2013-05-19 17:50:00,59.6,55.1,30.15,South,170,0.0,0.0,85,0.00,,,0.01,49,Wunderground v.1.15,2013-05-19 21:50:00,
2013-05-19 17:56:00,59.6,55.1,30.15,South,170,0.0,0.0,85,0.00,,,0.01,42,Wunderground v.1.15,2013-05-19 21:56:00,
2013-05-19 18:02:00,59.5,55.3,30.15,South,170,0.0,0.0,86,0.00,,,0.02,32,Wunderground v.1.15,2013-05-19 22:02:00,
2013-05-19 18:07:00,59.3,55.1,30.15,South,170,0.0,0.0,86,0.00,,,0.02,32,Wunderground v.1.15,2013-05-19 22:07:00,
2013-05-19 18:13:00,59.2,55.0,30.15,South,170,0.0,0.0,86,0.00,,,0.02,26,Wunderground v.1.15,2013-05-19 22:13:00,
2013-05-19 18:19:00,59.0,54.8,30.14,South,170,0.0,0.0,86,0.00,,,0.02,23,Wunderground v.1.15,2013-05-19 22:19:00,
2013-05-19 18:24:00,59.0,54.8,30.14,SSW,207,0.0,0.0,86,0.00,,,0.02,23,Wunderground v.1.15,2013-05-19 22:24:00,
2013-05-19 18:30:00,58.9,55.0,30.13,SSW,207,0.0,0.0,87,0.00,,,0.02,18,Wunderground v.1.15,2013-05-19 22:30:00,
2013-05-19 18:36:00,58.7,54.8,30.13,SSW,207,0.0,0.0,87,0.00,,,0.02,18,Wunderground v.1.15,2013-05-19 22:36:00,
2013-05-19 18:41:00,58.6,54.7,30.13,SSW,207,0.0,0.0,87,0.00,,,0.02,16,Wunderground v.1.15,2013-05-19 22:41:00,
2013-05-19 18:47:00,58.4,54.5,30.13,SSW,207,0.0,0.0,87,0.00,,,0.03,12,Wunderground v.1.15,2013-05-19 22:47:00,
2013-05-19 18:52:00,58.3,54.4,30.13,SSW,207,0.0,0.0,87,0.00,,,0.03,9,Wunderground v.1.15,2013-05-19 22:52:00,
2013-05-19 18:58:00,58.1,54.2,30.13,SSW,207,0.0,0.0,87,0.00,,,0.03,9,Wunderground v.1.15,2013-05-19 22:58:00,
2013-05-19 19:04:00,58.0,54.2,30.13,SSW,207,0.0,0.0,87,0.00,,,0.03,7,Wunderground v.1.15,2013-05-19 23:04:00,
2013-05-19 19:09:00,57.8,54.3,30.13,SSW,207,0.0,0.0,88,0.00,,,0.03,5,Wunderground v.1.15,2013-05-19 23:09:00,
2013-05-19 19:14:00,57.6,54.1,30.13,SSW,207,0.0,0.0,88,0.00,,,0.03,5,Wunderground v.1.15,2013-05-19 23:14:00,
2013-05-19 19:20:00,57.6,54.1,30.13,SSW,207,0.0,0.0,88,0.00,,,0.04,5,Wunderground v.1.15,2013-05-19 23:20:00,
2013-05-19 19:26:00,57.5,54.0,30.13,SSW,207,0.0,0.0,88,0.00,,,0.04,5,Wunderground v.1.15,2013-05-19 23:26:00,
2013-05-19 19:31:00,57.5,54.0,30.12,SSW,207,0.0,0.0,88,0.00,,,0.04,5,Wunderground v.1.15,2013-05-19 23:31:00,
2013-05-19 19:37:00,57.3,54.1,30.12,SSW,207,0.0,0.0,89,0.00,,,0.04,0,Wunderground v.1.15,2013-05-19 23:37:00,
2013-05-19 19:43:00,57.2,54.0,30.12,SSW,207,0.0,0.0,89,0.00,,,0.04,0,Wunderground v.1.15,2013-05-19 23:43:00,
2013-05-19 19:48:00,56.9,53.7,30.12,SSW,207,0.0,0.0,89,0.00,,,0.04,0,Wunderground v.1.15,2013-05-19 23:48:00,
2013-05-19 19:54:00,56.7,53.5,30.12,SSW,207,0.0,0.0,89,0.00,,,0.05,0,Wunderground v.1.15,2013-05-19 23:54:00,
2013-05-19 20:00:00,56.6,53.4,30.12,SSW,207,0.0,0.0,89,0.00,,,0.05,0,Wunderground v.1.15,2013-05-20 00:00:00,
2013-05-19 20:06:00,56.5,53.3,30.12,SSW,207,0.0,1.0,89,0.00,,,0.05,0,Wunderground v.1.15,2013-05-20 00:06:00,
2013-05-19 20:11:00,56.3,53.1,30.12,SSW,207,0.0,0.0,89,0.00,,,0.06,0,Wunderground v.1.15,2013-05-20 00:11:00,
2013-05-19 20:17:00,56.2,53.0,30.11,SSW,207,0.0,0.0,89,0.00,,,0.06,0,Wunderground v.1.15,2013-05-20 00:17:00,
2013-05-19 20:23:00,56.2,53.3,30.11,SSW,207,0.0,1.0,90,0.00,,,0.06,0,Wunderground v.1.15,2013-05-20 00:23:00,
2013-05-19 20:28:00,56.2,53.3,30.11,SSW,207,0.0,1.0,90,0.00,,,0.06,0,Wunderground v.1.15,2013-05-20 00:28:00,
2013-05-19 20:34:00,56.2,53.3,30.11,SSW,207,0.0,0.0,90,0.00,,,0.06,0,Wunderground v.1.15,2013-05-20 00:34:00,
2013-05-19 20:40:00,56.0,53.1,30.11,SSW,207,0.0,0.0,90,0.00,,,0.06,0,Wunderground v.1.15,2013-05-20 00:40:00,
2013-05-19 20:46:00,56.0,53.1,30.11,SSW,207,0.0,0.0,90,0.00,,,0.07,0,Wunderground v.1.15,2013-05-20 00:46:00,
2013-05-19 20:51:00,56.0,53.1,30.11,SSW,207,0.0,0.0,90,0.00,,,0.07,0,Wunderground v.1.15,2013-05-20 00:51:00,
2013-05-19 20:57:00,56.0,53.1,30.11,SSW,207,0.0,0.0,90,0.00,,,0.07,0,Wunderground v.1.15,2013-05-20 00:57:00,
2013-05-19 21:03:00,56.0,53.1,30.12,SSW,207,0.0,0.0,90,0.00,,,0.08,0,Wunderground v.1.15,2013-05-20 01:03:00,
2013-05-19 21:09:00,56.0,53.4,30.12,SSW,207,0.0,0.0,91,0.00,,,0.08,0,Wunderground v.1.15,2013-05-20 01:09:00,
2013-05-19 21:15:00,56.0,53.4,30.12,SSW,207,0.0,0.0,91,0.00,,,0.08,0,Wunderground v.1.15,2013-05-20 01:15:00,
2013-05-19 21:21:00,55.9,53.3,30.12,SSW,207,0.0,0.0,91,0.00,,,0.08,0,Wunderground v.1.15,2013-05-20 01:21:00,
2013-05-19 21:26:00,55.9,53.3,30.12,SSW,207,0.0,0.0,91,0.00,,,0.08,0,Wunderground v.1.15,2013-05-20 01:26:00,
2013-05-19 21:32:00,55.9,53.3,30.11,SSW,207,0.0,0.0,91,0.00,,,0.09,0,Wunderground v.1.15,2013-05-20 01:32:00,
2013-05-19 21:38:00,55.9,53.3,30.11,SSW,207,0.0,0.0,91,0.00,,,0.09,0,Wunderground v.1.15,2013-05-20 01:38:00,
2013-05-19 21:44:00,55.9,53.3,30.11,SSW,207,0.0,0.0,91,0.00,,,0.09,0,Wunderground v.1.15,2013-05-20 01:44:00,
2013-05-19 21:49:00,55.9,53.6,30.11,SSW,207,0.0,0.0,92,0.00,,,0.09,0,Wunderground v.1.15,2013-05-20 01:49:00,
2013-05-19 21:55:00,55.9,53.6,30.11,SSW,207,0.0,2.0,92,0.00,,,0.09,0,Wunderground v.1.15,2013-05-20 01:55:00,
2013-05-19 22:01:00,55.9,53.6,30.11,SSW,207,0.0,0.0,92,0.00,,,0.10,0,Wunderground v.1.15,2013-05-20 02:01:00,
2013-05-19 22:07:00,55.9,53.6,30.11,SSW,207,0.0,0.0,92,0.00,,,0.10,0,Wunderground v.1.15,2013-05-20 02:07:00,
2013-05-19 22:13:00,55.9,53.6,30.11,SSW,207,0.0,0.0,92,0.00,,,0.10,0,Wunderground v.1.15,2013-05-20 02:13:00,
2013-05-19 22:19:00,55.9,53.6,30.11,SSW,207,0.0,1.0,92,0.00,,,0.10,0,Wunderground v.1.15,2013-05-20 02:19:00,
2013-05-19 22:24:00,55.9,53.6,30.11,South,169,0.0,2.0,92,0.00,,,0.10,0,Wunderground v.1.15,2013-05-20 02:24:00,
2013-05-19 22:31:00,55.9,53.6,30.10,SW,216,0.0,0.0,92,0.00,,,0.10,0,Wunderground v.1.15,2013-05-20 02:31:00,
2013-05-19 22:36:00,56.0,53.7,30.10,SW,216,0.0,1.0,92,0.00,,,0.10,0,Wunderground v.1.15,2013-05-20 02:36:00,
2013-05-19 22:42:00,56.0,53.7,30.10,SSW,210,0.0,0.0,92,0.00,,,0.10,0,Wunderground v.1.15,2013-05-20 02:42:00,
2013-05-19 22:48:00,56.0,53.7,30.10,SSW,205,0.0,1.0,92,0.00,,,0.11,0,Wunderground v.1.15,2013-05-20 02:48:00,
2013-05-19 22:53:00,56.0,53.7,30.10,SSW,205,0.0,0.0,92,0.00,,,0.11,0,Wunderground v.1.15,2013-05-20 02:53:00,
2013-05-19 22:59:00,56.0,53.7,30.10,SSW,205,0.0,0.0,92,0.00,,,0.11,0,Wunderground v.1.15,2013-05-20 02:59:00,
2013-05-19 23:04:00,56.0,53.7,30.09,SSW,207,0.0,1.0,92,0.00,,,0.11,0,Wunderground v.1.15,2013-05-20 03:04:00,
2013-05-19 23:10:00,56.0,53.7,30.09,SSE,154,0.0,1.0,92,0.00,,,0.11,0,Wunderground v.1.15,2013-05-20 03:10:00,
2013-05-19 23:15:00,56.0,53.7,30.08,WSW,240,0.0,1.0,92,0.00,,,0.12,0,Wunderground v.1.15,2013-05-20 03:15:00,
2013-05-19 23:21:00,56.0,53.7,30.08,South,191,0.0,0.0,92,0.00,,,0.12,0,Wunderground v.1.15,2013-05-20 03:21:00,
2013-05-19 23:26:00,56.0,53.7,30.08,SSW,211,0.0,0.0,92,0.00,,,0.12,0,Wunderground v.1.15,2013-05-20 03:26:00,
2013-05-19 23:32:00,56.0,53.7,30.08,West,281,0.0,0.0,92,0.00,,,0.12,0,Wunderground v.1.15,2013-05-20 03:32:00,
2013-05-19 23:37:00,56.0,53.7,30.08,SSW,203,0.0,0.0,92,0.00,,,0.12,0,Wunderground v.1.15,2013-05-20 03:37:00,
2013-05-19 23:43:00,56.0,53.7,30.08,SE,126,0.0,3.0,92,0.00,,,0.12,0,Wunderground v.1.15,2013-05-20 03:43:00,
2013-05-19 23:49:00,56.0,53.7,30.08,SSW,201,1.0,3.0,92,0.00,,,0.12,0,Wunderground v.1.15,2013-05-20 03:49:00,
2013-05-19 23:54:00,56.0,53.7,30.08,South,182,1.0,1.0,92,0.00,,,0.13,0,Wunderground v.1.15,2013-05-20 03:54:00,